Time,TemperatureF,DewpointF,PressureIn,WindDirection,WindDirectionDegrees,WindSpeedMPH,WindSpeedGustMPH,Humidity,HourlyPrecipIn,Conditions,Clouds,dailyrainin,SoftwareType,DateUTC
2013-01-02 00:03:00,16.0,13.0,30.16,WSW,244,0.0,3.0,89,0.00,,,0.06,,2013-01-02 05:03:00,
2013-01-02 00:12:00,16.0,13.0,30.16,WSW,244,0.0,3.0,89,0.00,,,0.06,,2013-01-02 05:12:00,
2013-01-02 00:22:00,16.0,14.0,30.16,WSW,244,0.0,1.0,90,0.00,,,0.06,,2013-01-02 05:22:00,
2013-01-02 00:33:00,16.0,13.0,30.14,WNW,289,0.0,1.0,89,0.00,,,0.06,,2013-01-02 05:33:00,
2013-01-02 00:42:00,16.0,13.0,30.14,WNW,289,0.0,1.0,89,0.00,,,0.06,,2013-01-02 05:42:00,
2013-01-02 00:52:00,15.0,13.0,30.15,WNW,289,0.0,3.0,90,0.00,,,0.06,,2013-01-02 05:52:00,
2013-01-02 01:02:00,16.0,14.0,30.15,WNW,289,1.0,4.0,90,0.00,,,0.06,,2013-01-02 06:02:00,
2013-01-02 01:12:00,16.0,14.0,30.15,WNW,289,1.0,4.0,90,0.00,,,0.06,,2013-01-02 06:12:00,
2013-01-02 01:22:00,15.0,12.0,30.15,WNW,289,0.0,1.0,89,0.00,,,0.06,,2013-01-02 06:22:00,
2013-01-02 01:32:00,15.0,13.0,30.14,WNW,289,0.0,4.0,90,0.00,,,0.06,,2013-01-02 06:32:00,
2013-01-02 01:42:00,15.0,13.0,30.14,WNW,289,0.0,4.0,90,0.00,,,0.06,,2013-01-02 06:42:00,
2013-01-02 01:52:00,15.0,13.0,30.15,WNW,289,0.0,2.0,91,0.00,,,0.06,,2013-01-02 06:52:00,
2013-01-02 02:02:00,14.0,12.0,30.14,WNW,289,0.0,2.0,90,0.00,,,0.06,,2013-01-02 07:02:00,
2013-01-02 02:12:00,14.0,12.0,30.14,WNW,289,0.0,2.0,90,0.00,,,0.06,,2013-01-02 07:12:00,
2013-01-02 02:22:00,14.0,12.0,30.16,WNW,289,0.0,1.0,90,0.00,,,0.06,,2013-01-02 07:22:00,
2013-01-02 02:32:00,13.0,11.0,30.15,WNW,289,0.0,1.0,90,0.00,,,0.06,,2013-01-02 07:32:00,
2013-01-02 02:42:00,13.0,11.0,30.15,WNW,289,0.0,1.0,90,0.00,,,0.06,,2013-01-02 07:42:00,
2013-01-02 02:52:00,13.0,11.0,30.15,WNW,289,0.0,1.0,91,0.00,,,0.06,,2013-01-02 07:52:00,
2013-01-02 03:02:00,13.0,11.0,30.16,WNW,289,2.0,5.0,91,0.00,,,0.06,,2013-01-02 08:02:00,
2013-01-02 03:12:00,13.0,11.0,30.16,WNW,289,2.0,5.0,91,0.00,,,0.06,,2013-01-02 08:12:00,
2013-01-02 03:22:00,13.0,11.0,30.16,WNW,289,0.0,3.0,91,0.00,,,0.06,,2013-01-02 08:22:00,
2013-01-02 03:32:00,13.0,11.0,30.17,West,264,0.0,3.0,91,0.00,,,0.06,,2013-01-02 08:32:00,
2013-01-02 03:42:00,13.0,11.0,30.17,West,264,0.0,3.0,91,0.00,,,0.06,,2013-01-02 08:42:00,
2013-01-02 03:52:00,13.0,11.0,30.18,West,268,0.0,2.0,91,0.00,,,0.06,,2013-01-02 08:52:00,
2013-01-02 04:02:00,13.0,11.0,30.17,WNW,282,0.0,5.0,91,0.00,,,0.06,,2013-01-02 09:02:00,
2013-01-02 04:12:00,13.0,11.0,30.17,WNW,282,0.0,5.0,91,0.00,,,0.06,,2013-01-02 09:12:00,
2013-01-02 04:22:00,13.0,11.0,30.17,WNW,288,0.0,3.0,90,0.00,,,0.06,,2013-01-02 09:22:00,
2013-01-02 04:32:00,13.0,10.0,30.17,SW,233,0.0,3.0,89,0.00,,,0.06,,2013-01-02 09:32:00,
2013-01-02 04:43:00,13.0,10.0,30.17,SW,233,0.0,3.0,89,0.00,,,0.06,,2013-01-02 09:43:00,
2013-01-02 04:52:00,12.0,9.0,30.16,WSW,242,0.0,3.0,89,0.00,,,0.06,,2013-01-02 09:52:00,
2013-01-02 05:02:00,11.0,9.0,30.17,West,275,0.0,3.0,90,0.00,,,0.06,,2013-01-02 10:02:00,
2013-01-02 05:12:00,11.0,9.0,30.17,West,275,0.0,3.0,90,0.00,,,0.06,,2013-01-02 10:12:00,
2013-01-02 05:22:00,11.0,9.0,30.18,West,274,0.0,1.0,90,0.00,,,0.06,,2013-01-02 10:22:00,
2013-01-02 05:32:00,11.0,9.0,30.18,West,274,0.0,2.0,90,0.00,,,0.06,,2013-01-02 10:32:00,
2013-01-02 05:42:00,11.0,9.0,30.18,West,274,0.0,2.0,90,0.00,,,0.06,,2013-01-02 10:42:00,
2013-01-02 05:52:00,11.0,9.0,30.19,SW,221,0.0,4.0,90,0.00,,,0.06,,2013-01-02 10:52:00,
2013-01-02 06:02:00,11.0,9.0,30.19,WSW,255,0.0,3.0,90,0.00,,,0.06,,2013-01-02 11:02:00,
2013-01-02 06:12:00,11.0,9.0,30.19,WSW,255,0.0,3.0,90,0.00,,,0.06,,2013-01-02 11:12:00,
2013-01-02 06:22:00,11.0,9.0,30.19,West,270,0.0,3.0,90,0.00,,,0.06,,2013-01-02 11:22:00,
2013-01-02 06:33:00,10.0,8.0,30.19,WNW,293,0.0,2.0,90,0.00,,,0.06,,2013-01-02 11:33:00,
2013-01-02 06:42:00,10.0,8.0,30.19,WNW,293,0.0,2.0,90,0.00,,,0.06,,2013-01-02 11:42:00,
2013-01-02 06:52:00,10.0,8.0,30.19,West,275,0.0,3.0,90,0.00,,,0.06,,2013-01-02 11:52:00,
2013-01-02 08:03:00,8.0,5.0,30.18,West,276,0.0,2.0,89,0.00,,,0.06,,2013-01-02 13:03:00,
2013-01-02 08:12:00,8.0,5.0,30.18,West,276,0.0,2.0,89,0.00,,,0.06,,2013-01-02 13:12:00,
2013-01-02 08:22:00,8.0,6.0,30.19,West,275,0.0,1.0,91,0.00,,,0.06,,2013-01-02 13:22:00,
2013-01-02 08:33:00,7.0,4.0,30.20,WNW,289,0.0,0.0,89,0.00,,,0.06,,2013-01-02 13:33:00,
2013-01-02 08:43:00,7.0,4.0,30.20,WNW,289,0.0,0.0,89,0.00,,,0.06,,2013-01-02 13:43:00,
2013-01-02 08:52:00,7.0,5.0,30.21,WNW,289,0.0,2.0,90,0.00,,,0.06,,2013-01-02 13:52:00,
2013-01-02 09:03:00,7.0,5.0,30.21,WNW,289,0.0,2.0,90,0.00,,,0.06,,2013-01-02 14:03:00,
2013-01-02 09:12:00,7.0,5.0,30.21,WNW,289,0.0,2.0,90,0.00,,,0.06,,2013-01-02 14:12:00,
2013-01-02 09:22:00,8.0,6.0,30.21,SW,234,1.0,4.0,90,0.00,,,0.06,,2013-01-02 14:22:00,
2013-01-02 09:33:00,8.0,6.0,30.22,SW,219,1.0,3.0,90,0.00,,,0.06,,2013-01-02 14:33:00,
2013-01-02 09:43:00,8.0,6.0,30.22,SW,219,1.0,3.0,90,0.00,,,0.06,,2013-01-02 14:43:00,
2013-01-02 09:53:00,9.0,7.0,30.23,WSW,256,1.0,5.0,90,0.00,,,0.06,,2013-01-02 14:53:00,
2013-01-02 10:03:00,9.0,6.0,30.23,West,275,1.0,6.0,89,0.00,,,0.06,,2013-01-02 15:03:00,
2013-01-02 10:12:00,9.0,6.0,30.23,West,275,1.0,6.0,89,0.00,,,0.06,,2013-01-02 15:12:00,
2013-01-02 10:23:00,10.0,7.0,30.24,SW,226,1.0,5.0,87,0.00,,,0.06,,2013-01-02 15:23:00,
2013-01-02 10:33:00,10.0,7.0,30.25,WSW,254,3.0,6.0,87,0.00,,,0.06,,2013-01-02 15:33:00,
2013-01-02 10:43:00,10.0,7.0,30.25,WSW,254,3.0,6.0,87,0.00,,,0.06,,2013-01-02 15:43:00,
2013-01-02 10:53:00,12.0,9.0,30.25,WSW,251,4.0,6.0,86,0.00,,,0.06,,2013-01-02 15:53:00,
2013-01-02 11:03:00,12.0,8.0,30.26,WNW,293,1.0,7.0,85,0.00,,,0.06,,2013-01-02 16:03:00,
2013-01-02 11:13:00,12.0,8.0,30.26,WNW,293,1.0,7.0,85,0.00,,,0.06,,2013-01-02 16:13:00,
2013-01-02 11:22:00,13.0,9.0,30.26,SSW,211,2.0,7.0,84,0.00,,,0.06,,2013-01-02 16:22:00,
2013-01-02 11:33:00,14.0,10.0,30.25,WNW,285,2.0,7.0,84,0.00,,,0.06,,2013-01-02 16:33:00,
2013-01-02 11:43:00,14.0,10.0,30.25,WNW,285,2.0,7.0,84,0.00,,,0.06,,2013-01-02 16:43:00,
2013-01-02 11:53:00,15.0,11.0,30.25,West,261,1.0,6.0,82,0.00,,,0.06,,2013-01-02 16:53:00,
2013-01-02 12:03:00,16.0,11.0,30.26,SW,229,2.0,6.0,82,0.00,,,0.06,,2013-01-02 17:03:00,
2013-01-02 12:13:00,16.0,11.0,30.26,SW,229,2.0,6.0,82,0.00,,,0.06,,2013-01-02 17:13:00,
2013-01-02 12:23:00,17.0,12.0,30.24,SSW,210,1.0,5.0,81,0.00,,,0.06,,2013-01-02 17:23:00,
2013-01-02 12:33:00,18.0,13.0,30.24,SW,216,3.0,7.0,80,0.00,,,0.06,,2013-01-02 17:33:00,
2013-01-02 12:43:00,18.0,13.0,30.24,SW,216,3.0,7.0,80,0.00,,,0.06,,2013-01-02 17:43:00,
2013-01-02 12:54:00,19.0,14.0,30.24,WSW,240,1.0,6.0,81,0.00,,,0.06,,2013-01-02 17:54:00,
2013-01-02 13:03:00,19.0,14.0,30.23,West,261,2.0,6.0,80,0.00,,,0.05,,2013-01-02 18:03:00,
2013-01-02 13:13:00,19.0,14.0,30.23,West,261,2.0,6.0,80,0.00,,,0.05,,2013-01-02 18:13:00,
2013-01-02 13:23:00,20.0,14.0,30.23,WSW,255,3.0,6.0,78,0.00,,,0.05,,2013-01-02 18:23:00,
2013-01-02 13:33:00,21.0,16.0,30.23,SW,232,3.0,6.0,79,0.00,,,0.05,,2013-01-02 18:33:00,
2013-01-02 13:43:00,21.0,16.0,30.23,SW,232,3.0,6.0,79,0.00,,,0.05,,2013-01-02 18:43:00,
2013-01-02 13:53:00,21.0,15.0,30.22,SW,217,2.0,7.0,78,0.00,,,0.05,,2013-01-02 18:53:00,
2013-01-02 14:03:00,22.0,16.0,30.21,SSW,208,2.0,6.0,78,0.00,,,0.04,,2013-01-02 19:03:00,
2013-01-02 14:13:00,22.0,16.0,30.21,SSW,208,2.0,6.0,78,0.00,,,0.04,,2013-01-02 19:13:00,
2013-01-02 14:23:00,22.0,16.0,30.21,WSW,250,3.0,7.0,78,0.00,,,0.04,,2013-01-02 19:23:00,
2013-01-02 14:33:00,22.0,16.0,30.21,WSW,250,3.0,7.0,78,0.00,,,0.04,,2013-01-02 19:33:00,
2013-01-02 14:43:00,22.0,16.0,30.21,WSW,250,3.0,7.0,78,0.00,,,0.04,,2013-01-02 19:43:00,
2013-01-02 14:53:00,22.0,17.0,30.21,WSW,248,2.0,7.0,80,0.00,,,0.04,,2013-01-02 19:53:00,
2013-01-02 15:03:00,22.0,17.0,30.21,WSW,251,3.0,7.0,80,0.00,,,0.03,,2013-01-02 20:03:00,
2013-01-02 15:12:00,22.0,17.0,30.21,WSW,251,3.0,7.0,80,0.00,,,0.03,,2013-01-02 20:12:00,
2013-01-02 15:23:00,21.0,16.0,30.20,South,190,2.0,7.0,81,0.00,,,0.03,,2013-01-02 20:23:00,
2013-01-02 15:33:00,21.0,16.0,30.21,NW,315,2.0,8.0,81,0.00,,,0.03,,2013-01-02 20:33:00,
2013-01-02 15:42:00,21.0,16.0,30.21,NW,315,2.0,8.0,81,0.00,,,0.03,,2013-01-02 20:42:00,
2013-01-02 15:53:00,21.0,16.0,30.21,WSW,257,2.0,7.0,81,0.00,,,0.03,,2013-01-02 20:53:00,
2013-01-02 16:03:00,21.0,16.0,30.21,SSW,197,2.0,7.0,80,0.00,,,0.01,,2013-01-02 21:03:00,
2013-01-02 16:13:00,21.0,16.0,30.21,SSW,197,2.0,7.0,80,0.00,,,0.01,,2013-01-02 21:13:00,
2013-01-02 16:23:00,21.0,15.0,30.22,SSW,193,3.0,7.0,78,0.00,,,0.01,,2013-01-02 21:23:00,
2013-01-02 16:33:00,21.0,16.0,30.22,SSW,207,2.0,7.0,79,0.00,,,0.01,,2013-01-02 21:33:00,
2013-01-02 16:43:00,21.0,16.0,30.22,SSW,207,2.0,7.0,79,0.00,,,0.01,,2013-01-02 21:43:00,
2013-01-02 16:53:00,21.0,16.0,30.22,SSW,211,1.0,7.0,79,0.00,,,0.01,,2013-01-02 21:53:00,
2013-01-02 17:03:00,21.0,16.0,30.22,SSW,196,1.0,4.0,80,0.00,,,0.00,,2013-01-02 22:03:00,
2013-01-02 17:12:00,21.0,16.0,30.22,SSW,196,1.0,4.0,80,0.00,,,0.00,,2013-01-02 22:12:00,
2013-01-02 17:22:00,20.0,15.0,30.22,South,190,0.0,6.0,80,0.00,,,0.00,,2013-01-02 22:22:00,
2013-01-02 17:32:00,20.0,15.0,30.23,South,182,1.0,6.0,80,0.00,,,0.00,,2013-01-02 22:32:00,
2013-01-02 17:42:00,20.0,15.0,30.23,South,182,1.0,6.0,80,0.00,,,0.00,,2013-01-02 22:42:00,
2013-01-02 17:53:00,20.0,15.0,30.24,West,276,1.0,5.0,80,0.00,,,0.00,,2013-01-02 22:53:00,
2013-01-02 18:03:00,19.0,14.0,30.24,SSW,192,0.0,4.0,79,0.00,,,0.00,,2013-01-02 23:03:00,
2013-01-02 18:13:00,19.0,14.0,30.24,SSW,192,0.0,4.0,79,0.00,,,0.00,,2013-01-02 23:13:00,
2013-01-02 18:23:00,18.0,13.0,30.24,WSW,246,0.0,4.0,79,0.00,,,0.00,,2013-01-02 23:23:00,
2013-01-02 18:33:00,18.0,12.0,30.25,West,281,0.0,4.0,78,0.00,,,0.00,,2013-01-02 23:33:00,
2013-01-02 18:42:00,18.0,12.0,30.25,West,281,0.0,4.0,78,0.00,,,0.00,,2013-01-02 23:42:00,
2013-01-02 18:53:00,17.0,12.0,30.26,SW,223,0.0,4.0,79,0.00,,,0.00,,2013-01-02 23:53:00,
2013-01-02 19:02:00,16.0,11.0,30.26,WSW,238,0.0,2.0,80,0.00,,,0.00,,2013-01-03 00:02:00,
2013-01-02 19:12:00,16.0,11.0,30.26,WSW,238,0.0,2.0,80,0.00,,,0.00,,2013-01-03 00:12:00,
2013-01-02 19:22:00,15.0,10.0,30.27,SW,223,0.0,3.0,80,0.00,,,0.00,,2013-01-03 00:22:00,
2013-01-02 19:38:00,15.0,10.0,30.26,SW,233,0.0,2.0,79,0.00,,,0.00,,2013-01-03 00:38:00,
2013-01-02 19:53:00,15.0,9.0,30.26,WSW,242,0.0,2.0,78,0.00,,,0.00,,2013-01-03 00:53:00,
2013-01-02 20:02:00,15.0,9.0,30.26,SSW,213,0.0,1.0,78,0.00,,,0.00,,2013-01-03 01:02:00,
2013-01-02 20:12:00,15.0,9.0,30.26,SSW,213,0.0,1.0,78,0.00,,,0.00,,2013-01-03 01:12:00,
2013-01-02 20:22:00,15.0,9.0,30.25,SE,134,0.0,0.0,78,0.00,,,0.00,,2013-01-03 01:22:00,
2013-01-02 20:32:00,15.0,9.0,30.25,SE,134,0.0,0.0,78,0.00,,,0.00,,2013-01-03 01:32:00,
2013-01-02 20:43:00,15.0,9.0,30.25,SE,134,0.0,0.0,78,0.00,,,0.00,,2013-01-03 01:43:00,
2013-01-02 20:53:00,14.0,8.0,30.25,SE,134,0.0,1.0,78,0.00,,,0.00,,2013-01-03 01:53:00,
2013-01-02 21:02:00,13.0,8.0,30.24,SE,134,0.0,1.0,79,0.00,,,0.00,,2013-01-03 02:02:00,
2013-01-02 21:12:00,13.0,8.0,30.24,SE,134,0.0,1.0,79,0.00,,,0.00,,2013-01-03 02:12:00,
2013-01-02 21:23:00,13.0,8.0,30.25,SE,134,0.0,1.0,79,0.00,,,0.00,,2013-01-03 02:23:00,
2013-01-02 21:33:00,12.0,7.0,30.25,SE,134,0.0,0.0,79,0.00,,,0.00,,2013-01-03 02:33:00,
2013-01-02 21:42:00,12.0,7.0,30.25,SE,134,0.0,0.0,79,0.00,,,0.00,,2013-01-03 02:42:00,
2013-01-02 21:52:00,12.0,7.0,30.25,SE,134,0.0,0.0,79,0.00,,,0.00,,2013-01-03 02:52:00,
2013-01-02 22:02:00,11.0,6.0,30.24,SE,134,0.0,0.0,81,0.00,,,0.00,,2013-01-03 03:02:00,
2013-01-02 22:12:00,11.0,6.0,30.24,SE,134,0.0,0.0,81,0.00,,,0.00,,2013-01-03 03:12:00,
2013-01-02 22:22:00,11.0,6.0,30.24,SE,134,0.0,0.0,81,0.00,,,0.00,,2013-01-03 03:22:00,
2013-01-02 22:46:00,12.0,7.0,30.24,SE,134,0.0,3.0,79,0.00,,,0.00,,2013-01-03 03:46:00,
2013-01-02 22:53:00,12.0,6.0,30.23,SE,134,0.0,1.0,77,0.00,,,0.00,,2013-01-03 03:53:00,
2013-01-02 23:03:00,12.0,6.0,30.24,SE,134,0.0,2.0,77,0.00,,,0.00,,2013-01-03 04:03:00,
2013-01-02 23:12:00,12.0,6.0,30.24,SE,134,0.0,2.0,77,0.00,,,0.00,,2013-01-03 04:12:00,
2013-01-02 23:22:00,12.0,6.0,30.24,SE,134,0.0,2.0,77,0.00,,,0.00,,2013-01-03 04:22:00,
2013-01-02 23:32:00,12.0,6.0,30.23,SSW,202,0.0,2.0,77,0.00,,,0.00,,2013-01-03 04:32:00,
2013-01-02 23:42:00,12.0,6.0,30.23,SSW,202,0.0,2.0,77,0.00,,,0.00,,2013-01-03 04:42:00,
2013-01-02 23:52:00,12.0,6.0,30.23,SSW,202,0.0,2.0,77,0.00,,,0.00,,2013-01-03 04:52:00,